FW1688 Davie FL US current weather conditions

sailwx.info

Wind from 046 at 6 knots gusting 12

Air temperature 20.6° C
Dewpoint 17.6° C

Last reported at 2020-Feb-21 18:02 UTC.
Time now 2020-Feb-21 19:07 UTC

Location: N 26°06' W 080°16'.
View on Google Maps.

See reports from other nearby stations

  
Tides and Currents Weather Stations Pressure Air Temp Water Temp Dewpoint Dewpoint Depression Visibility Wind Speed Wind Dir Waves Ship Positions
date/time (UTC)wind fromknots sea level pressurealtimeterstation pressurevisibilityair tempwater tempwave heightnotes
2020-Feb-21 18:02 046 6 gusting 12 20.6
2020-Feb-21 17:46 332 4 gusting 13 20.6
2020-Feb-21 17:31 338 2 gusting 13 20.6
2020-Feb-21 17:16 350 3 gusting 9 20.0
2020-Feb-21 17:01 352 4 gusting 11 20.6
2020-Feb-21 16:46 318 1 gusting 10 20.6
2020-Feb-21 16:31 033 2 gusting 10 20.6
2020-Feb-21 16:15 037 3 gusting 10 20.0
2020-Feb-21 16:01 340 4 gusting 11 20.0
2020-Feb-21 15:46 023 3 gusting 9 20.0
2020-Feb-21 15:30 342 4 gusting 16 20.6
2020-Feb-21 15:16 314 3 gusting 7 25.0
2020-Feb-21 15:00 311 5 gusting 10 25.0
2020-Feb-21 14:46 264 3 gusting 7 24.4
2020-Feb-21 14:30 255 2 gusting 7 23.9
2020-Feb-21 14:15 307 2 gusting 8 23.3
2020-Feb-21 14:01 271 2 gusting 7 22.8
2020-Feb-21 13:45 281 3 gusting 6 22.2
2020-Feb-21 13:30 293 1 gusting 6 21.7
2020-Feb-21 13:15 276 0 gusting 6 21.7
2020-Feb-21 13:00 315 3 gusting 7 21.7
2020-Feb-21 12:45 302 1 gusting 6 21.7
2020-Feb-21 12:30 317 1 gusting 6 21.1
2020-Feb-21 12:15 313 1 gusting 5 21.1
2020-Feb-21 12:00 316 1 gusting 5 21.1
2020-Feb-21 11:46 319 21.1
2020-Feb-21 11:30 283 21.1
2020-Feb-21 11:15 281 1 gusting 3 21.1
2020-Feb-21 11:00 298 1 gusting 5 21.1
2020-Feb-21 10:45 292 1 gusting 7 21.1
2020-Feb-21 10:30 306 2 gusting 6 21.1
2020-Feb-21 10:15 352 21.1
2020-Feb-21 10:00 323 0 gusting 4 21.7
2020-Feb-21 09:45 321 2 gusting 6 21.7
2020-Feb-21 09:30 326 21.7
2020-Feb-21 09:15 288 1 gusting 9 21.7
2020-Feb-21 09:00 302 1 gusting 5 21.7
2020-Feb-21 08:45 311 0 gusting 4 21.7
2020-Feb-21 08:30 304 0 gusting 4 21.7
2020-Feb-21 08:15 315 21.7
2020-Feb-21 08:00 293 21.7
2020-Feb-21 07:46 282 21.7
2020-Feb-21 07:32 285 22.2
2020-Feb-21 07:17 295 0 gusting 3 22.2
2020-Feb-21 07:01 283 22.2
2020-Feb-21 06:46 276 0 22.2
2020-Feb-21 06:32 296 0 gusting 3 22.8
2020-Feb-21 06:16 290 0 gusting 5 22.8
2020-Feb-21 06:02 270 0 gusting 2 23.3
2020-Feb-21 05:46 270 1 gusting 4 23.3
2020-Feb-21 05:31 285 0 gusting 5 23.3
2020-Feb-21 05:15 276 23.3
2020-Feb-21 05:01 264 23.3
2020-Feb-21 04:45 266 23.3
2020-Feb-21 04:31 274 23.3
2020-Feb-21 04:15 291 23.3
2020-Feb-21 04:00 291 23.9
2020-Feb-21 03:45 245 23.9
2020-Feb-21 03:30 280 23.3
2020-Feb-21 03:15 248 23.9
2020-Feb-21 03:01 242 23.9
2020-Feb-21 02:46 240 23.9
2020-Feb-21 02:30 243 23.9
2020-Feb-21 02:15 243 23.3
2020-Feb-21 02:01 228 23.3
2020-Feb-21 01:45 186 23.9
2020-Feb-21 01:31 233 23.9
2020-Feb-21 01:15 224 1 gusting 4 23.9
2020-Feb-21 01:00 224 2 gusting 6 24.4
2020-Feb-21 00:46 230 2 gusting 6 24.4
2020-Feb-21 00:31 220 25.0
2020-Feb-21 00:15 243 3 gusting 7 25.0
2020-Feb-21 00:00 233 25.0
2020-Feb-20 23:45 207 25.0
2020-Feb-20 23:30 160 25.0
2020-Feb-20 23:15 183 25.0
2020-Feb-20 23:00 205 25.6
2020-Feb-20 22:46 143 25.6
2020-Feb-20 22:30 211 3 gusting 6 26.1
2020-Feb-20 22:16 174 0 gusting 5 26.1
2020-Feb-20 22:00 165 25.6
2020-Feb-20 21:45 227 25.6
2020-Feb-20 21:31 248 0 gusting 6 25.0
2020-Feb-20 21:16 241 3 gusting 9 26.1
2020-Feb-20 21:01 207 1 gusting 9 27.2
2020-Feb-20 20:45 178 1 gusting 8 27.2
2020-Feb-20 20:30 164 3 gusting 8 27.8
2020-Feb-20 20:15 153 2 gusting 6 27.8
2020-Feb-20 20:00 132 1 gusting 7 28.3
2020-Feb-20 19:45 179 2 gusting 6 28.3
2020-Feb-20 19:31 146 2 gusting 8 28.3
2020-Feb-20 19:15 162 3 gusting 7 28.3
2020-Feb-20 19:00 139 0 gusting 7 27.8
2020-Feb-20 18:45 140 1 gusting 6 28.9
2020-Feb-20 18:30 166 0 gusting 6 27.8
2020-Feb-20 18:15 214 1 gusting 6 28.9
2020-Feb-20 18:00 202 1 gusting 9 28.9
2020-Feb-20 17:46 146 2 gusting 15 28.9
2020-Feb-20 17:31 167 4 gusting 12 28.9
2020-Feb-20 17:17 128 1 gusting 6 28.9
2020-Feb-20 17:02 134 0 gusting 4 28.9
2020-Feb-20 16:46 224 1 gusting 5 29.4
2020-Feb-20 16:32 134 2 gusting 5 28.9
2020-Feb-20 16:16 139 0 gusting 6 28.3
2020-Feb-20 16:02 168 0 gusting 6 28.9
2020-Feb-20 15:47 219 1 gusting 6 28.9
2020-Feb-20 15:31 148 2 gusting 6 28.3
2020-Feb-20 15:16 150 0 gusting 4 28.3
2020-Feb-20 15:01 198 1 gusting 5 27.8
2020-Feb-20 14:45 114 0 gusting 5 27.2
2020-Feb-20 14:30 143 0 gusting 4 26.7
2020-Feb-20 14:16 148 0 gusting 5 26.1
2020-Feb-20 14:00 168 26.1
2020-Feb-20 13:45 169 25.6
2020-Feb-20 13:30 128 24.4
2020-Feb-20 13:16 206 23.9
2020-Feb-20 13:00 206 23.3
2020-Feb-20 12:45 167 22.8
2020-Feb-20 12:30 160 21.7
2020-Feb-20 12:15 115 21.1
2020-Feb-20 12:00 108 21.7
2020-Feb-20 11:45 107 21.7
2020-Feb-20 11:30 108 21.7
2020-Feb-20 11:15 108 22.2
2020-Feb-20 11:00 108 22.2
2020-Feb-20 10:45 113 21.7
2020-Feb-20 10:30 113 21.7
2020-Feb-20 10:15 208 21.7
2020-Feb-20 10:00 209 21.7
2020-Feb-20 09:45 209 21.7
2020-Feb-20 09:31 209 21.7
2020-Feb-20 09:16 207 22.2
2020-Feb-20 09:01 207 22.2
2020-Feb-20 08:46 207 22.2
2020-Feb-20 08:32 207 22.2
2020-Feb-20 08:16 207 22.2
2020-Feb-20 08:01 207 22.2
2020-Feb-20 07:46 207 22.8
2020-Feb-20 07:32 213 22.8
2020-Feb-20 07:16 213 22.8
2020-Feb-20 07:01 213 22.8
2020-Feb-20 06:30 213 22.8
2020-Feb-20 06:16 213 22.8
2020-Feb-20 06:01 213 22.8
2020-Feb-20 05:46 213 22.8
2020-Feb-20 05:30 213 22.8
2020-Feb-20 05:15 213 22.8
2020-Feb-20 05:00 214 22.8
2020-Feb-20 04:45 210 22.8
2020-Feb-20 04:30 210 23.3
2020-Feb-20 04:16 210 23.3
2020-Feb-20 04:01 138 23.3
2020-Feb-20 03:45 160 23.9
2020-Feb-20 03:30 110 23.9
2020-Feb-20 03:15 137 23.9
2020-Feb-20 02:45 109 24.4
2020-Feb-20 02:30 127 24.4
2020-Feb-20 02:15 132 24.4
2020-Feb-20 02:00 125 0 gusting 2 24.4
2020-Feb-20 01:45 141 24.4
2020-Feb-20 01:30 134 24.4
2020-Feb-20 01:15 122 25.0
2020-Feb-20 01:00 084 25.0
2020-Feb-20 00:45 091 25.0
2020-Feb-20 00:30 145 25.0
2020-Feb-20 00:15 145 0 gusting 4 25.0
2020-Feb-20 00:00 142 1 gusting 4 25.0
2020-Feb-19 23:45 140 0 gusting 3 25.0
2020-Feb-19 23:30 110 0 gusting 5 25.6
2020-Feb-19 23:15 125 0 gusting 5 25.6
2020-Feb-19 23:00 097 26.1
2020-Feb-19 22:45 143 0 gusting 4 26.7
2020-Feb-19 22:30 130 0 gusting 6 26.7
2020-Feb-19 22:15 130 0 gusting 6 27.2
2020-Feb-19 22:00 158 2 gusting 6 27.8
2020-Feb-19 21:45 131 1 gusting 6 27.8
2020-Feb-19 21:30 143 0 gusting 6 27.8
2020-Feb-19 21:15 127 2 gusting 7 27.8
2020-Feb-19 21:00 127 0 gusting 6 28.3
2020-Feb-19 20:45 146 0 gusting 6 28.3
2020-Feb-19 20:17 111 3 gusting 7 28.9
2020-Feb-19 20:02 185 0 gusting 4 29.4
2020-Feb-19 19:46 187 2 gusting 6 28.9
2020-Feb-19 19:45 124 2 gusting 6 28.9
2020-Feb-19 19:31 130 1 gusting 7 28.3
2020-Feb-19 19:18 107 2 gusting 8 28.3
2020-Feb-19 19:02 124 0 gusting 7 28.3